[[{"header":{"parameterUnit":"m.s-1","parameterCategory":1,"la1":30.2991,"la2":30.254,"lo1":-89.0895,"lo2":-89.0444,"dy":0.0017,"dx":0.0017,"nx":28,"ny":28,"refTime":"2025-06-07T09:00:00:Z","depth":0,"parameterNumber":2,"parameterNumberName":"U-component_of_WINDS"},"data":[0,0,0,0,0,0,0,0,0,0,0,0,0,0,0,0,0,0,0,0,0,0,0,0,0,0,0,0,0,0,0,0,0,0,0,0,0,0,0,0,0,0,0,0,0,0,0,0,0,0,0,0,0,0,0,0,0,0,3.0425,3.0425,0,3.0449,3.045,3.045,3.0471,3.0471,3.0471,3.0472,3.0496,3.0497,3.0497,0,0,0,0,0,0,0,0,0,0,0,0,0,3.0399,3.0399,3.0425,3.0425,3.0425,3.0449,3.045,3.045,3.0471,3.0471,3.0471,3.0472,3.0496,3.0497,3.0497,0,0,0,0,0,0,0,0,0,0,0,0,0,3.0415,3.0399,3.0425,3.0439,3.044,3.0449,3.045,3.045,3.0471,3.0471,3.0471,3.0472,3.0496,3.0497,3.0497,3.0495,0,0,3.0499,3.05,0,0,0,0,0,0,0,0,3.0414,3.0416,3.0436,3.0438,3.0439,3.0457,3.045,3.0465,3.0471,3.0459,3.0472,3.0472,3.0483,3.0485,3.0489,3.0496,3.0497,3.0499,3.05,3.05,3.05,0,0,0,0,0,0,0,3.0413,3.0415,3.0435,3.0437,3.0438,3.0445,3.0447,3.0453,3.0469,3.046,3.0462,3.0464,3.0484,3.0488,3.0489,3.0497,3.0499,3.05,3.05,3.0501,3.0508,3.0507,0,0,0,0,0,0,3.041,3.0414,3.0434,3.0435,3.0428,3.0445,3.0448,3.0451,3.0469,3.0472,3.0464,3.0465,3.0487,3.0489,3.049,3.049,3.05,3.0501,3.0501,3.0508,3.0508,3.0507,0,0,0,0,0,0,3.0409,3.0411,3.0433,3.0425,3.0429,3.0445,3.0449,3.0452,3.0455,3.0472,3.0475,3.0465,3.0487,3.0489,3.0494,3.0491,3.0501,3.0502,3.0508,3.0508,3.0507,3.0488,0,0,0,0,0,0,3.0408,3.0411,3.0409,3.0425,3.0429,3.0435,3.0448,3.0452,3.0457,3.0458,3.0473,3.0476,3.0487,3.0493,3.0495,3.0492,3.0502,3.0508,3.0508,3.0508,3.0489,3.0487,3.0485,0,0,0,0,0,3.0407,3.0401,3.0408,3.0411,3.0426,3.0435,3.0437,3.045,3.0456,3.0455,3.0467,3.0476,3.0492,3.0493,3.0496,3.0493,3.0509,3.0508,3.0508,3.049,3.0487,3.0485,0,0,0,0,0,0,3.0382,3.0403,3.0411,3.041,3.0421,3.0438,3.0436,3.0447,3.0455,3.0456,3.0472,3.0476,3.0479,3.0487,3.0488,3.0494,3.0502,3.0502,3.0487,3.0485,3.0484,3.0481,3.0503,0,0,0,0,0,3.0377,3.0381,3.04,3.0397,3.0402,3.0419,3.0423,3.0433,3.0444,3.0448,3.0459,3.047,3.0478,3.0483,3.0491,3.0492,3.0496,3.0491,3.049,3.0488,3.0487,3.0491,3.049,3.0506,3.0506,3.0506,0,0,3.0365,3.0377,3.0379,3.0393,3.0402,3.0407,3.0422,3.0426,3.0431,3.0449,3.0454,3.0464,3.0477,3.0481,3.0483,3.0487,3.0485,3.0488,3.0486,3.0486,3.0491,3.0489,3.0488,3.0505,3.0505,3.0506,0,0,3.0346,3.0355,3.0355,3.0366,3.038,3.0392,3.0393,3.041,3.0417,3.0423,3.0438,3.0445,3.0457,3.0467,3.0474,3.0466,3.0475,3.0468,3.0458,3.0462,3.046,3.0459,3.0457,3.0456,3.0468,3.0468,3.0468,0,3.0328,3.0336,3.0354,3.0358,3.0365,3.0385,3.0386,3.0395,3.0411,3.0416,3.0422,3.0441,3.0451,3.0459,3.0457,3.0462,3.0464,3.0465,3.0459,3.0458,3.0458,3.0456,3.0455,3.0467,3.0467,3.0467,3.0467,0,3.0316,3.0322,3.032,3.0337,3.0345,3.0347,3.0367,3.0372,3.0384,3.0396,3.0404,3.0419,3.0431,3.0435,3.0444,3.0445,3.0447,3.0456,3.0464,3.0455,3.0453,3.0453,3.0465,3.0466,3.0466,3.0466,0,0,3.0275,3.0307,3.0305,3.0315,3.0336,3.0341,3.0347,3.0361,3.0366,3.0379,3.0384,3.0398,3.0407,3.0415,3.0428,3.0431,3.0426,3.044,3.0441,3.0437,3.0429,3.0422,3.042,3.0434,3.0434,3.0434,3.0428,0,3.0258,3.0268,3.0287,3.0292,3.0299,3.0322,3.0327,3.0341,3.0355,3.0364,3.0379,3.0388,3.04,3.0405,3.041,3.0425,3.0424,3.0426,3.044,3.044,3.0434,3.0419,3.041,3.0403,3.0428,3.0428,3.0428,0,3.0238,3.0251,3.0257,3.0282,3.0286,3.029,3.0306,3.0315,3.0333,3.0343,3.0355,3.037,3.038,3.039,3.0404,3.0405,3.0413,3.0422,3.0422,3.0422,3.0431,3.0418,3.0402,3.04,3.0427,3.0427,3.0427,0,3.0208,3.0228,3.0235,3.0242,3.0271,3.0274,3.0286,3.0305,3.0314,3.033,3.0336,3.0352,3.036,3.0373,3.0393,3.0398,3.0407,3.0417,3.0415,3.0415,3.0413,3.0412,3.0396,3.0421,3.0421,3.0421,3.0421,0,3.0185,3.0188,3.0222,3.0225,3.0231,3.0255,3.026,3.0274,3.0292,3.0301,3.0322,3.033,3.0357,3.0369,3.0385,3.0396,3.0399,3.0408,3.0412,3.0405,3.0404,3.0408,3.0409,3.0421,3.0421,3.0421,3.0421,0,3.0149,3.0172,3.0181,3.021,3.0218,3.022,3.0246,3.0252,3.0269,3.028,3.0284,3.0311,3.0327,3.0349,3.0371,3.0382,3.0391,3.0398,3.0384,3.0386,3.0383,3.0382,3.0367,3.0367,3.0393,3.0393,3.0392,0,3.0132,3.0135,3.0166,3.0174,3.0186,3.0198,3.0208,3.0234,3.0244,3.0269,3.0273,3.0291,3.0306,3.033,3.0352,3.037,3.0377,3.0372,3.038,3.0374,3.0377,3.0376,3.0377,3.0368,3.0368,3.0367,3.0367,0,3.0099,3.0112,3.0125,3.0145,3.0157,3.0173,3.019,3.0196,3.0226,3.0237,3.0254,3.0266,3.0292,3.0309,3.0332,3.0346,3.0362,3.0365,3.0366,3.0357,3.0349,3.0353,3.0377,3.0364,3.0364,3.0365,3.0365,3.0365,3.0071,3.0076,3.01,3.0116,3.0133,3.015,3.0158,3.0179,3.0193,3.0216,3.0232,3.0249,3.0273,3.0305,3.0319,3.0334,3.034,3.0341,3.0341,3.034,3.0338,3.0349,3.0339,3.0339,3.0339,3.0339,3.0339,0,3.0038,3.0056,3.0071,3.0096,3.011,3.0127,3.0149,3.0159,3.0174,3.0196,3.0212,3.0234,3.0254,3.028,3.0302,3.0309,3.0317,3.0314,3.0312,3.0316,3.0331,3.0328,3.0307,3.0307,3.0307,3.0307,3.0307,3.0307,3.0022,3.0032,3.0049,3.007,3.0089,3.0106,3.0117,3.0135,3.0153,3.0177,3.0193,3.0212,3.0236,3.0261,3.0281,3.0289,3.0295,3.0289,3.0299,3.0312,3.0314,3.0317,3.0314,3.0291,3.0291,3.0283,3.0283,3.0283]},{"header":{"parameterUnit":"m.s-1","parameterCategory":1,"la1":30.2991,"la2":30.254,"lo1":-89.0895,"lo2":-89.0444,"dy":0.0017,"dx":0.0017,"nx":28,"ny":28,"refTime":"2025-06-07T09:00:00:Z","depth":0,"parameterNumber":3,"parameterNumberName":"V-component_of_WINDS"},"data":[0,0,0,0,0,0,0,0,0,0,0,0,0,0,0,0,0,0,0,0,0,0,0,0,0,0,0,0,0,0,0,0,0,0,0,0,0,0,0,0,0,0,0,0,0,0,0,0,0,0,0,0,0,0,0,0,0,0,4.5648,4.565,0,4.5863,4.5865,4.5868,4.5941,4.594,4.5939,4.5939,4.6151,4.6158,4.6164,0,0,0,0,0,0,0,0,0,0,0,0,0,4.5292,4.5298,4.5648,4.565,4.5653,4.5863,4.5866,4.5868,4.5941,4.594,4.5939,4.5938,4.6149,4.6157,4.6164,0,0,0,0,0,0,0,0,0,0,0,0,0,4.547,4.53,4.5647,4.5715,4.5723,4.5862,4.5866,4.5869,4.5941,4.594,4.5939,4.5938,4.6147,4.6156,4.6166,4.625,0,0,4.6195,4.6199,0,0,0,0,0,0,0,0,4.546,4.5483,4.5702,4.571,4.572,4.5874,4.5818,4.5997,4.5942,4.5858,4.5939,4.5937,4.606,4.6076,4.6119,4.626,4.627,4.6196,4.6202,4.6206,4.6209,0,0,0,0,0,0,0,4.5447,4.5474,4.5733,4.5705,4.5716,4.5732,4.5756,4.5852,4.5963,4.5865,4.5871,4.5896,4.6064,4.611,4.6125,4.6273,4.6196,4.6204,4.621,4.6214,4.6492,4.6494,0,0,0,0,0,0,4.5425,4.5463,4.5726,4.5739,4.5584,4.5739,4.5766,4.5826,4.5962,4.5982,4.5897,4.5899,4.6094,4.6113,4.6132,4.624,4.6206,4.6215,4.622,4.6491,4.6493,4.6494,0,0,0,0,0,0,4.5417,4.5448,4.5717,4.5603,4.5639,4.5747,4.5813,4.5831,4.5877,4.5986,4.6006,4.5924,4.6094,4.6119,4.6221,4.6249,4.6219,4.6228,4.6489,4.6491,4.6493,4.6456,0,0,0,0,0,0,4.5406,4.5444,4.548,4.5603,4.5644,4.5804,4.5815,4.5836,4.5894,4.5898,4.6017,4.6035,4.6095,4.6206,4.623,4.6261,4.6236,4.6487,4.649,4.6493,4.6456,4.6457,4.6459,0,0,0,0,0,4.5393,4.5459,4.5481,4.5512,4.5692,4.5806,4.5829,4.5899,4.5896,4.5931,4.6001,4.6031,4.6241,4.6216,4.6244,4.6278,4.6485,4.6489,4.6492,4.6455,4.6457,4.6459,0,0,0,0,0,0,4.5334,4.5477,4.5503,4.5611,4.5696,4.5818,4.5865,4.5899,4.5984,4.5984,4.6064,4.609,4.6185,4.6242,4.6211,4.6366,4.6365,4.6374,4.6326,4.6329,4.6331,4.6315,4.6244,0,0,0,0,0,4.5334,4.5417,4.5537,4.5621,4.5662,4.5756,4.5808,4.5855,4.5945,4.598,4.6058,4.6142,4.6227,4.6281,4.6365,4.6464,4.649,4.6501,4.6502,4.6503,4.651,4.6565,4.6571,4.6506,4.6506,4.6506,0,0,4.5334,4.5422,4.547,4.5611,4.5682,4.5764,4.5786,4.5872,4.5933,4.5992,4.6094,4.6154,4.6252,4.6353,4.6401,4.6403,4.6534,4.6508,4.6507,4.6514,4.6569,4.6575,4.658,4.6508,4.6508,4.6508,0,0,4.5376,4.5452,4.553,4.5601,4.5709,4.5771,4.5789,4.5907,4.5949,4.6053,4.6099,4.6171,4.6316,4.6384,4.6438,4.6504,4.6534,4.6529,4.6536,4.6589,4.6594,4.6599,4.6621,4.6629,4.6535,4.6535,4.6535,0,4.5361,4.549,4.5565,4.5649,4.5709,4.5769,4.5847,4.5911,4.604,4.6079,4.608,4.6263,4.6333,4.6449,4.6465,4.6507,4.6529,4.6516,4.6588,4.6593,4.6599,4.6621,4.663,4.6534,4.6534,4.6534,4.6534,0,4.5466,4.5554,4.5603,4.5729,4.5794,4.5875,4.5959,4.6016,4.6056,4.6116,4.6219,4.6306,4.6409,4.644,4.6478,4.6561,4.6559,4.6572,4.6572,4.6602,4.6625,4.6634,4.6532,4.6532,4.6533,4.6533,0,0,4.5477,4.5643,4.566,4.5717,4.5841,4.5909,4.599,4.6093,4.6139,4.6225,4.6294,4.6415,4.6429,4.6489,4.6536,4.6582,4.6627,4.659,4.6594,4.6594,4.6722,4.6711,4.672,4.6648,4.665,4.6651,4.6713,0,4.5534,4.5687,4.5756,4.5876,4.5957,4.6014,4.6085,4.6167,4.6225,4.63,4.6363,4.6447,4.6459,4.6496,4.6544,4.6612,4.6654,4.6608,4.6711,4.6713,4.6685,4.6732,4.6721,4.6775,4.6723,4.6724,4.6725,0,4.5622,4.5711,4.584,4.5953,4.5989,4.6052,4.6151,4.6223,4.6315,4.6354,4.6422,4.6467,4.6552,4.6545,4.6662,4.6629,4.6675,4.6714,4.6718,4.673,4.6721,4.6744,4.6794,4.6802,4.674,4.6739,4.6738,0,4.5617,4.5768,4.5865,4.5912,4.6046,4.6089,4.6146,4.6238,4.6295,4.638,4.6417,4.651,4.656,4.663,4.6697,4.6687,4.6807,4.6806,4.684,4.6838,4.6863,4.686,4.692,4.6892,4.6892,4.6892,4.6892,0,4.5674,4.575,4.5864,4.5923,4.6009,4.6087,4.6169,4.623,4.6311,4.6381,4.6434,4.6498,4.6584,4.6657,4.671,4.6798,4.6821,4.6853,4.6866,4.6848,4.6844,4.6879,4.6877,4.6894,4.6894,4.6893,4.6893,0,4.5682,4.5762,4.5871,4.5989,4.6021,4.6079,4.6179,4.6237,4.6297,4.6385,4.641,4.6504,4.6594,4.6668,4.6785,4.682,4.6912,4.6927,4.6881,4.6888,4.6917,4.6913,4.7002,4.7017,4.6978,4.6978,4.6979,0,4.5713,4.5773,4.5899,4.5951,4.6008,4.6091,4.615,4.6227,4.6286,4.6395,4.6439,4.6533,4.6613,4.6752,4.6829,4.6918,4.6936,4.6961,4.695,4.693,4.6936,4.6932,4.6938,4.6962,4.6962,4.6962,4.6962,0,4.5759,4.5796,4.588,4.5978,4.6047,4.6127,4.6208,4.6247,4.6339,4.6401,4.6495,4.6556,4.6676,4.6768,4.6865,4.6921,4.6956,4.6965,4.6977,4.696,4.6931,4.6947,4.6883,4.6962,4.6962,4.6962,4.6962,4.6962,4.578,4.5836,4.5933,4.6025,4.6094,4.6169,4.6229,4.6298,4.6379,4.6485,4.6524,4.6619,4.6708,4.6843,4.6899,4.6973,4.6977,4.6995,4.6999,4.7003,4.7,4.6919,4.699,4.6991,4.6991,4.6991,4.6991,0,4.5829,4.5894,4.5978,4.6091,4.6162,4.6191,4.6282,4.6339,4.6424,4.6505,4.6582,4.6689,4.6778,4.6862,4.6954,4.6997,4.7015,4.7019,4.7016,4.7028,4.6991,4.6971,4.7002,4.7002,4.7002,4.7002,4.7002,4.7002,4.5863,4.5959,4.6007,4.6137,4.6201,4.6298,4.6347,4.6415,4.648,4.6598,4.6673,4.6728,4.681,4.6909,4.6991,4.7013,4.7044,4.7043,4.7069,4.7033,4.7031,4.7029,4.7011,4.7049,4.7049,4.71,4.7101,4.7101]}]]